weather.gov     
National Weather Service

Terminal Aerodrome Forecast
NWS Homepage
This page is being discontinued on March 12, 2014.
The same data is available at this site. Please update your bookmarks.
Thank you, and we apologize for the inconvenience.
Please send an email to SR-SRH.Webmaster@noaa.gov with any concerns.


Current Version
Previous Version:    01  02  03  04  05  06  07  08  09  10  11  12  13  14  15  16  17  18  19  20  21  22  23  24  25  
[Printable]
191
FTAK31 PAJN 211500 AAA
TAFAJN
TAF AMD
PAJN 211535Z 2116/2212 00000KT P6SM -SHRA FEW010 BKN035 OVC045
      TEMPO 2116/2120 4SM -SHRA BR FEW003 BKN010 OVC030
     FM220300 VRB03KT 6SM BR VCSH SCT003 BKN035=


U.S. Dept. of Commerce
NOAA National Weather Service
1325 East West Highway
Silver Spring, MD 20910
E-mail: w-nws.webmaster@noaa.gov
Page last modified: May 16, 2007
NATIONAL WEATHER SERVICE: for Safety, for Work, for Fun - FOR LIFE